This demonstration page uses our WeatherBlox Daily Observations layout. Learn more.

Hourly Observations for January 7, 2019

Temp ( °F °C ) Dew Point ( °F °C ) Humidity (%) Winds ( mph kmh ) Pressure ( in mb ) Visibility ( mi km ) Precip ( " mm )
12:15 am 00:15 Cloudy 37 2.6 36 2 96 96 WNW 5 7 29.68 1005 10 16.0934 0 0
12:35 am 00:35 Cloudy 37 3 36 2 93 93 W 3 6 29.68 1005 10 16.0934 0 0
12:55 am 00:55 Cloudy 38 3.4 36 2 91 91 WNW 8 13 29.65 1004 10 16.0934 0 0
1:15 am 01:15 Cloudy with Light Drizzle 37 2.9 35 1.5 91 91 NW 10 17 29.62 1003 10 16.0934 0 0
1:35 am 01:35 Mostly Cloudy 44 6.5 34 1.2 69 69 WNW 10 17 29.62 1003 10 16.0934 0 0
1:55 am 01:55 Partly Cloudy 43 6.1 34 1 70 70 WNW 9 15 29.62 1003 10 16.0934 0 0
2:15 am 02:15 Mostly Cloudy 42 5.8 34 1 72 72 W 8 13 29.65 1004 10 16.0934 0 0
2:35 am 02:35 Cloudy 42 5.4 34 1.1 74 74 W 9 15 29.62 1003 10 16.0934 0 0
2:55 am 02:55 Cloudy with Light Drizzle 43 6.1 34 1 70 70 WNW 9 15 29.65 1004 10 16.0934 0 0
3:15 am 03:15 Cloudy 42 5.6 34 1.2 74 74 W 10 17 29.68 1005 10 16.0934 0 0
3:35 am 03:35 Cloudy 42 5.6 34 1 73 73 WNW 13 20 29.68 1005 10 16.0934 0 0
3:55 am 03:55 Cloudy 41 5.1 34 0.9 75 75 WNW 10 17 29.68 1005 10 16.0934 0 0
4:15 am 04:15 Cloudy 42 5.3 33 0.8 73 73 W 13 20 29.71 1006 10 16.0934 0 0
4:35 am 04:35 Mostly Cloudy 42 5.7 33 0.6 70 70 W 14 22 29.71 1006 10 16.0934 0 0
4:55 am 04:55 Partly Cloudy 41 5.1 33 0.4 72 72 W 13 20 29.71 1006 10 16.0934 0 0
5:15 am 05:15 Clear 40 4.5 32 0 73 73 W 14 22 29.71 1006 10 16.0934 0 0
5:35 am 05:35 Clear 39 4.1 32 -0.1 74 74 W 14 22 29.74 1007 10 16.0934 0 0
5:55 am 05:55 Clear 39 3.8 31 -0.5 74 74 W 17 28 29.74 1007 10 16.0934 0 0
6:15 am 06:15 Clear 39 3.7 31 -0.8 73 73 W 14 22 29.77 1008 10 16.0934 0 0
6:35 am 06:35 Clear 38 3.3 30 -1 74 74 W 13 20 29.8 1009 10 16.0934 0 0
6:55 am 06:55 Clear 37 3 30 -1.2 74 74 W 12 19 29.83 1010 10 16.0934 0 0
7:15 am 07:15 Clear 38 3.1 29 -1.4 73 73 W 15 24 29.83 1010 10 16.0934 0 0
7:35 am 07:35 Clear 37 3 29 -1.5 73 73 WNW 12 19 29.83 1010 10 16.0934 0 0
7:55 am 07:55 Clear 37 3 29 -1.8 71 71 WNW 12 19 29.83 1010 10 16.0934 0 0
8:15 am 08:15 Sunny 38 3.2 28 -2 69 69 WNW 13 20 29.85 1011 10 16.0934 0 0
8:35 am 08:35 Sunny 37 3 29 -1.8 71 71 WNW 12 19 29.85 1011 10 16.0934 0 0
8:55 am 08:55 Sunny 38 3.2 29 -1.7 71 71 NW 10 17 29.85 1011 10 16.0934 0 0
9:15 am 09:15 Sunny 38 3.3 29 -1.5 71 71 WNW 9 15 29.85 1011 10 16.0934 0 0
9:35 am 09:35 Sunny 38 3.6 30 -1.1 72 72 NW 7 11 29.85 1011 10 16.0934 0 0
9:55 am 09:55 Sunny 40 4.3 31 -0.8 70 70 WNW 7 11 29.83 1010 10 16.0934 0 0
10:15 am 10:15 Sunny 40 4.5 31 -0.7 69 69 W 12 19 29.83 1010 10 16.0934 0 0
10:35 am 10:35 Sunny 41 5.1 31 -0.8 66 66 WNW 10 17 29.83 1010 10 16.0934 0 0
10:55 am 10:55 Sunny 42 5.7 31 -0.4 65 65 WNW 12 19 29.83 1010 10 16.0934 0 0
11:15 am 11:15 Sunny 43 6.2 31 -0.4 63 63 W 9 15 29.83 1010 10 16.0934 0 0
11:35 am 11:35 Sunny 44 6.5 30 -0.9 60 60 W 13 20 29.85 1011 10 16.0934 0 0
11:55 am 11:55 Sunny 44 6.9 31 -0.7 59 59 W 10 17 29.83 1010 10 16.0934 0 0
12:15 pm 12:15 Sunny 45 7 30 -0.9 58 58 W 8 13 29.83 1010 10 16.0934 0 0
12:35 pm 12:35 Sunny 44 6.7 31 -0.3 61 61 WSW 5 7 29.83 1010 10 16.0934 0 0
12:55 pm 12:55 Sunny 43 6.2 31 -0.6 62 62 WSW 5 7 29.83 1010 10 16.0934 0 0
1:15 pm 13:15 Sunny 43 6.2 31 -0.6 62 62 WSW 7 11 29.83 1010 10 16.0934 0 0
1:35 pm 13:35 Sunny 42 5.8 31 -0.6 64 64 W 8 13 29.83 1010 10 16.0934 0 0
1:55 pm 13:55 Sunny 43 6 31 -0.5 63 63 W 8 13 29.83 1010 10 16.0934 0 0
2:15 pm 14:15 Sunny 43 6.1 31 -0.3 64 64 W 10 17 29.83 1010 10 16.0934 0 0
2:35 pm 14:35 Sunny 43 6 32 0 66 66 W 9 15 29.83 1010 10 16.0934 0 0
2:55 pm 14:55 Sunny 42 5.6 32 0 68 68 W 9 15 29.83 1010 10 16.0934 0 0
3:15 pm 15:15 Sunny 44 6.5 33 0.7 67 67 SW 6 9 29.83 1010 10 16.0934 0 0
3:35 pm 15:35 Sunny 43 6.2 33 0.6 68 68 SW 9 15 29.83 1010 10 16.0934 0 0
3:55 pm 15:55 Sunny 43 6.3 32 0.1 65 65 SW 9 15 29.83 1010 10 16.0934 0 0
4:15 pm 16:15 Sunny 43 6 32 0.2 67 67 SW 8 13 29.83 1010 10 16.0934 0 0
4:35 pm 16:35 Sunny 42 5.6 32 -0.2 67 67 SW 8 13 29.83 1010 10 16.0934 0 0
4:55 pm 16:55 Sunny 41 5 32 0 70 70 SW 8 13 29.85 1011 10 16.0934 0 0
5:15 pm 17:15 Sunny 40 4.4 32 0 73 73 SW 9 15 29.83 1010 10 16.0934 0 0
5:35 pm 17:35 Clear 38 3.2 32 -0.2 79 79 SW 10 17 29.88 1012 10 16.0934 0 0
5:55 pm 17:55 Clear 39 4 31 -0.6 72 72 SW 10 17 29.88 1012 10 16.0934 0 0
6:15 pm 18:15 Clear 38 3.2 31 -0.7 76 76 SW 10 17 29.88 1012 10 16.0934 0 0
6:35 pm 18:35 Clear 37 3 30 -1 75 75 SW 8 13 29.88 1012 10 16.0934 0 0
6:55 pm 18:55 Partly Cloudy 39 3.7 31 -0.5 74 74 WSW 8 13 29.88 1012 10 16.0934 0 0
7:15 pm 19:15 Clear 38 3.2 31 -0.7 76 76 WSW 5 7 29.88 1012 10 16.0934 0 0
7:35 pm 19:35 Clear 39 4.1 31 -0.7 71 71 SW 9 15 29.88 1012 10 16.0934 0 0
7:55 pm 19:55 Clear 40 4.4 31 -0.7 70 70 WSW 10 17 29.85 1011 10 16.0934 0 0
8:15 pm 20:15 Clear 39 4.1 31 -0.6 72 72 WSW 10 17 29.88 1012 10 16.0934 0 0
8:35 pm 20:35 Clear 41 5 31 -0.8 66 66 WSW 13 20 29.88 1012 10 16.0934 0 0
8:55 pm 20:55 Partly Cloudy 42 5.4 30 -1 64 64 WSW 14 22 29.88 1012 10 16.0934 0 0
9:15 pm 21:15 Partly Cloudy 44 6.8 29 -1.6 55 55 W 22 35 29.88 1012 10 16.0934 0 0
9:35 pm 21:35 Clear 44 6.5 29 -1.9 55 55 W 22 35 29.88 1012 10 16.0934 0 0
9:55 pm 21:55 Clear 43 6 28 -2.1 56 56 W 21 33 29.91 1013 10 16.0934 0 0
10:15 pm 22:15 Clear 44 6.5 27 -2.9 51 51 WNW 23 37 29.91 1013 10 16.0934 0 0
10:35 pm 22:35 Clear 42 5.8 27 -2.7 55 55 WNW 21 33 29.94 1014 10 16.0934 0 0
10:55 pm 22:55 Clear 42 5.5 29 -1.8 60 60 WNW 21 33 29.94 1014 10 16.0934 0 0
11:15 pm 23:15 Clear 42 5.5 28 -2.4 57 57 WNW 26 43 29.97 1015 10 16.0934 0 0
11:35 pm 23:35 Clear 42 5.3 27 -2.9 56 56 NW 29 46 30 1016 10 16.0934 0 0
11:55 pm 23:55 Clear 40 4.6 28 -2.5 60 60 NW 29 46 30.03 1017 10 16.0934 0 0

Powered by AerisWeather